Location: Unspecified
(0.0000°N, 0.0000°E)
Time: 07:19:38
(UTC+00:00)

Vanguard 1 - All Passes

Search period start: 26 September 2017 00:00
Search period end: 06 October 2017 00:00
Orbit: 651 x 3833 km, 34.2° (Epoch: 24 September)

Date Brightness Start Highest point End Pass type
(mag) Time Alt. Az. Time Alt. Az. Time Alt. Az.
26 Sep - 01:37:12 10° SW 01:54:28 59° SE 02:17:36 10° ENE visible
26 Sep - 04:00:30 10° WSW 04:22:00 66° NW 04:43:51 10° NE visible
26 Sep - 06:32:42 10° W 06:50:51 28° NNW 07:05:25 10° NNE daylight
26 Sep - 09:20:57 10° NNW 09:21:15 10° NNW 09:21:34 10° NNW daylight
26 Sep - 14:07:02 10° NW 14:12:47 36° NNE 14:17:02 10° E daylight
26 Sep - 16:29:38 10° W 16:32:54 19° SW 16:36:12 10° SSE daylight
26 Sep - 23:38:38 10° SSW 23:50:02 27° SE 00:06:22 10° E visible
27 Sep - 01:58:08 10° SW 02:16:07 73° SE 02:39:52 10° ENE visible
27 Sep - 04:22:44 10° WSW 04:43:59 54° NW 05:04:56 10° NE visible
27 Sep - 06:57:53 10° WNW 07:13:37 22° NNW 07:26:12 10° NNE daylight
27 Sep - 12:07:34 10° NNW 12:11:39 14° NNE 12:14:56 10° NE daylight
27 Sep - 14:27:56 10° NW 14:34:00 67° NE 14:38:26 10° ESE daylight
27 Sep - 23:58:59 10° SSW 00:11:46 36° SE 00:30:45 10° E visible
28 Sep - 02:19:17 10° SW 02:37:48 88° SE 03:01:46 10° NE visible
28 Sep - 04:45:29 10° W 05:06:10 44° NW 05:25:56 10° NNE visible
28 Sep - 07:23:47 10° WNW 07:36:43 18° NNW 07:47:07 10° NNE daylight
28 Sep - 12:27:34 10° NNW 12:33:37 20° NNE 12:37:57 10° ENE daylight
28 Sep - 14:49:13 10° WNW 14:55:01 65° SW 14:59:25 10° SE daylight
28 Sep - 22:04:09 10° SSE 22:08:04 12° SSE 22:12:38 10° SE night (unlit)
29 Sep - 00:19:30 10° SSW 00:33:18 46° SE 00:54:18 10° ENE visible
29 Sep - 02:40:40 10° WSW 02:59:35 78° NW 03:23:21 10° NE visible
29 Sep - 05:08:50 10° W 05:28:36 35° NNW 05:46:54 10° NNE visible
29 Sep - 07:49:56 10° NW 08:00:04 15° NNW 08:08:22 10° NNE daylight
29 Sep - 10:26:18 10° NNW 10:30:22 12° N 10:33:48 10° NNE daylight
29 Sep - 12:48:04 10° NNW 12:55:20 30° NNE 13:00:08 10° E daylight
29 Sep - 15:10:59 10° WNW 15:15:57 33° SW 15:19:59 10° SSE daylight
29 Sep - 22:22:52 10° S 22:30:05 17° SE 22:39:49 10° ESE night (unlit)
30 Sep - 00:40:10 10° SW 00:54:44 59° SE 01:17:13 10° ENE visible
30 Sep - 03:02:23 10° WSW 03:21:30 64° NW 03:44:43 10° NE visible
30 Sep - 05:32:54 10° W 05:51:20 29° NNW 06:07:54 10° NNE daylight
30 Sep - 08:15:31 10° NW 08:23:35 13° N 08:30:15 10° NNE daylight
30 Sep - 10:46:35 10° NNW 10:52:56 15° NNE 10:57:44 10° NE daylight
30 Sep - 13:08:55 10° NW 13:16:49 47° NNE 13:21:46 10° ESE daylight
30 Sep - 15:33:27 10° W 15:36:54 18° SW 15:39:58 10° S daylight
30 Sep - 22:42:37 10° SSW 22:51:46 24° SE 23:05:18 10° E visible
01 Oct - 01:01:01 10° SW 01:16:12 74° SE 01:39:36 10° ENE visible
01 Oct - 03:24:29 10° WSW 03:43:37 52° NW 04:05:57 10° NE visible
01 Oct - 05:57:42 10° WNW 06:14:27 23° NNW 06:29:04 10° NNE daylight
01 Oct - 08:39:41 10° NNW 08:47:03 13° N 08:53:05 10° NNE daylight
01 Oct - 11:07:08 10° NNW 11:15:13 20° NNE 11:20:47 10° ENE daylight
01 Oct - 13:30:07 10° NW 13:38:03 79° NE 13:42:59 10° ESE daylight
01 Oct - 23:02:45 10° SSW 23:13:12 33° SE 23:29:44 10° E visible
02 Oct - 01:22:05 10° SW 01:37:45 89° SE 02:01:36 10° NE visible
02 Oct - 03:47:03 10° W 04:05:59 43° NNW 04:27:07 10° NE visible
02 Oct - 06:23:06 10° WNW 06:37:54 20° NNW 06:50:31 10° NNE daylight
02 Oct - 09:02:19 10° NNW 09:10:20 14° N 09:16:36 10° NNE daylight
02 Oct - 11:27:52 10° NNW 11:37:16 28° NNE 11:43:10 10° E daylight
02 Oct - 13:51:39 10° WNW 13:59:04 60° SW 14:03:51 10° SE daylight
02 Oct - 23:23:07 10° SSW 23:34:28 44° SE 23:53:21 10° ENE visible
03 Oct - 01:43:23 10° WSW 01:59:28 75° NW 02:23:17 10° NE visible
03 Oct - 04:10:12 10° W 04:28:38 35° NNW 04:48:17 10° NNE visible
03 Oct - 06:48:37 10° NW 07:01:37 17° NNW 07:12:27 10° NNE daylight
03 Oct - 09:23:59 10° NNW 09:33:19 17° N 09:40:09 10° NE daylight
03 Oct - 11:48:47 10° NW 11:59:03 40° NNE 12:05:04 10° E daylight
03 Oct - 14:13:40 10° WNW 14:19:56 34° SW 14:24:19 10° SSE daylight
03 Oct - 21:27:54 10° S 21:32:39 14° SE 21:38:38 10° ESE visible
03 Oct - 23:43:41 10° SW 23:55:42 58° SE 00:16:19 10° ENE visible
04 Oct - 02:05:00 10° WSW 02:21:24 62° NW 02:44:46 10° NE visible
04 Oct - 04:33:59 10° WNW 04:51:38 29° NNW 05:09:35 10° NNE visible
04 Oct - 07:13:35 10° NW 07:25:25 16° N 07:35:03 10° NNE daylight
04 Oct - 09:45:15 10° NNW 09:56:00 21° NNE 10:03:18 10° ENE daylight
04 Oct - 12:09:57 10° NW 12:20:35 59° NNE 12:26:31 10° ESE daylight
04 Oct - 14:36:22 10° W 14:40:46 19° SW 14:44:16 10° S daylight
04 Oct - 21:47:02 10° S 21:54:06 21° SE 22:04:22 10° E night (unlit)
05 Oct - 00:04:27 10° SW 00:16:59 74° SE 00:38:45 10° ENE visible
05 Oct - 02:26:59 10° WSW 02:43:36 50° NNW 03:06:08 10° NE visible
05 Oct - 04:58:24 10° WNW 05:15:01 24° NNW 05:31:08 10° NNE visible
05 Oct - 07:37:27 10° NNW 07:49:07 17° N 07:58:18 10° NE daylight
05 Oct - 10:06:21 10° NNW 10:18:24 27° NNE 10:25:57 10° ENE daylight
05 Oct - 12:31:24 10° NW 12:41:51 89° NE 12:47:37 10° SE daylight
05 Oct - 22:06:54 10° SSW 22:15:18 30° SE 22:28:48 10° E night (unlit)
